Tracking 21074 objects as of 11-Aug-2020
HD Live streaming from Space Station
objects crossing your sky now
Track the most recent launched group of Starlink satellites

FLOCK 3P 2

Track FLOCK 3P 2 now!
10-day predictions
FLOCK 3P 2 is classified as:


NORAD ID: 41966
Int'l Code: 2017-008U
Perigee: 486.9 km
Apogee: 500.1 km
Inclination: 97.4 °
Period: 94.3 minutes
Semi major axis: 6864 km
RCS: Unknown
Launch date: February 15, 2017
Source: United States (US)
Launch site: SRIHARIKOTA (SRI)
aabbcc
Your satellite tracking list
Your tracking list is empty




NASA's NSSDC Master Catalog

Two Line Element Set (TLE):
1 41966U 17008U   20223.94336061 +.00001495 +00000-0 +60044-4 0  9990
2 41966 097.3616 290.7246 0009622 098.6337 261.5992 15.26472317193730
Source of the keplerian elements: AFSPC